Theta_e
320 319 318 317 318 326 334 334 335 335 337 331 331 333 334 333 334 332 331 329 326 325 325 325 325 324 322 323 321 319 317 316 315 313 313 313 312 313 313 313 313 313 312 313
321 321 320 321 331 333 334 337 337 336 335 336 338 337 336 336 335 332 330 327 327 326 326 327 325 323 323 321 320 318 317 314 312 312 313 312 312 312 313 312 312 313 312 313
321 323 325 327 326 327 327 328 329 336 334 333 335 339 339 337 335 334 331 329 328 328 325 322 321 320 321 319 320 315 313 312 312 312 312 311 310 309 311 311 311 311 312 312
327 327 327 327 327 325 325 326 326 330 331 339 334 345 337 333 335 336 332 329 327 327 323 320 319 320 319 315 314 313 313 312 313 312 311 310 311 311 310 310 310 309 310 311
331 330 330 330 329 327 327 327 326 327 325 332 337 341 340 332 338 337 332 330 325 323 320 319 321 319 315 317 313 312 311 311 311 311 310 309 309 309 309 308 307 307 308 311
331 330 331 331 330 327 326 324 323 319 323 337 335 336 334 337 337 333 328 326 322 321 321 321 321 313 312 312 312 311 311 311 309 309 309 307 307 307 307 306 306 307 308 308
330 333 331 329 330 325 322 321 322 322 330 342 335 335 332 335 335 329 325 323 322 321 320 314 312 312 311 310 309 309 310 309 309 309 308 307 306 306 307 306 306 306 306 308
331 336 332 332 331 328 325 322 323 328 324 340 334 341 335 333 330 326 325 322 320 316 310 310 310 311 309 309 308 308 309 309 308 308 307 306 306 307 306 305 305 305 306 309
332 334 332 331 324 324 325 326 323 323 327 337 337 336 334 333 331 327 322 322 314 310 309 309 309 310 309 308 308 308 308 309 307 308 307 307 307 306 306 305 305 306 308 308
332 332 330 329 327 325 324 324 326 325 332 341 335 333 337 335 331 325 323 319 312 309 308 307 308 307 307 308 307 308 309 309 308 307 307 307 306 306 306 306 306 306 308 308
328 326 328 328 328 324 323 324 324 326 329 333 336 337 329 329 327 324 320 316 310 308 307 306 307 307 308 308 308 309 309 309 308 309 308 307 307 307 307 306 306 307 307 308
329 326 332 333 329 323 322 324 323 324 331 328 329 334 325 324 321 316 316 310 308 307 305 306 306 308 308 308 309 309 309 308 309 308 307 308 308 307 307 307 307 307 307 307
328 327 323 327 325 324 323 324 322 320 323 329 331 331 323 322 318 317 312 310 309 307 305 306 306 307 308 308 308 309 309 309 309 309 309 308 308 308 308 306 307 307 308 308
328 329 327 328 327 325 325 323 322 321 328 331 330 329 323 320 318 312 310 309 309 308 306 305 305 307 308 308 309 309 308 309 309 309 310 309 309 309 309 309 308 306 307 308
329 332 330 326 325 324 324 324 323 324 326 329 327 324 321 319 315 312 310 309 310 308 307 305 305 307 308 308 309 309 308 308 309 310 310 310 310 309 309 310 309 308 307 307
326 328 332 332 326 325 326 322 321 321 321 322 322 323 319 317 313 312 312 311 310 309 308 307 308 309 307 309 310 310 309 309 310 311 311 310 310 311 311 310 309 308 308 308
328 327 330 333 331 330 328 328 326 324 323 320 320 319 318 314 313 311 310 310 310 309 308 308 309 308 309 309 310 310 310 309 311 311 311 310 309 309 310 310 311 311 311 311
330 330 330 331 330 335 328 326 324 324 323 320 322 319 315 313 311 309 309 309 309 308 309 308 309 309 309 310 309 310 311 309 310 310 311 311 311 311 311 312 312 312 312 311
327 327 328 331 334 330 330 329 325 325 324 320 320 316 314 312 311 311 309 309 308 309 309 309 309 309 309 310 310 311 310 310 311 311 312 312 311 311 312 312 313 312 312 312
328 328 331 332 333 334 330 327 323 322 326 320 317 316 315 313 313 310 310 311 310 309 310 309 309 309 309 310 311 310 310 310 311 312 312 312 312 313 313 312 312 312 311 312
331 330 333 332 333 332 326 325 321 322 321 317 316 315 315 314 310 309 310 311 311 309 309 309 309 310 310 310 310 310 311 311 312 312 312 312 312 311 308 309 309 312 312 312
332 332 332 330 330 333 324 322 324 320 318 314 314 313 312 311 310 309 309 311 311 310 309 310 310 310 311 312 311 311 312 312 312 314 313 313 313 311 311 303 306 308 311 312
331 328 326 327 327 322 320 319 318 314 314 314 313 311 312 311 311 309 309 310 311 311 311 311 310 311 311 312 311 312 312 313 313 312 313 313 313 310 308 303 302 305 306 307
328 323 324 326 326 324 319 317 315 312 312 312 312 312 311 310 309 310 310 310 311 310 311 311 311 312 312 313 312 312 313 313 312 312 312 312 312 312 313 308 302 300 300 299
327 324 323 323 323 321 320 318 316 313 312 311 313 313 311 310 311 312 311 312 311 311 312 311 312 312 312 312 313 313 313 313 313 313 312 312 312 313 313 310 307 303 300 297
323 327 324 323 321 318 319 317 315 312 312 312 313 312 312 311 311 313 311 311 311 311 312 312 312 312 312 313 313 313 313 313 313 313 312 313 313 313 312 312 308 304 302 301
Wind_Speed
4 3 5 12 8 5 5 4 6 6 7 18 19 17 10 7 9 7 7 7 6 4 4 5 4 4 4 3 1 4 6 9 10 14 13 13 16 15 9 13 8 10 11 10
4 7 12 4 10 14 6 3 5 16 24 22 15 11 6 8 7 6 7 6 7 3 2 4 2 1 2 3 3 7 7 8 11 13 12 14 17 17 8 14 10 11 12 9
9 13 3 8 6 7 3 3 2 14 17 20 24 9 5 5 5 5 7 4 5 4 4 3 1 4 5 4 5 6 9 14 14 14 15 16 16 16 17 17 14 12 10 11
5 4 11 9 6 6 8 5 7 15 8 5 9 5 3 0 2 10 8 6 5 5 2 2 5 3 4 8 9 11 12 13 12 13 15 13 13 13 15 16 15 14 13 12
2 5 8 9 3 5 2 2 5 4 7 6 6 5 2 4 3 6 7 6 6 6 7 2 2 10 13 8 11 9 10 12 13 15 15 15 15 14 14 17 17 17 14 10
2 2 4 2 2 7 1 9 9 5 5 5 8 4 3 2 6 6 5 7 7 6 6 4 5 13 16 15 13 14 14 17 16 15 14 15 14 16 18 17 17 16 14 11
5 6 5 5 7 7 12 8 4 5 5 2 4 7 3 4 6 7 9 7 5 4 3 10 12 16 16 16 17 17 17 16 16 13 14 15 16 14 13 15 15 16 16 16
5 8 6 6 1 2 5 6 5 2 3 4 5 3 2 1 8 7 6 6 4 7 8 9 11 14 13 13 15 14 14 14 15 14 16 17 16 15 14 16 14 12 14 12
4 4 4 5 6 4 4 3 2 4 5 5 1 1 3 7 7 8 7 6 7 7 7 9 14 10 10 11 10 12 13 11 16 16 15 15 17 17 16 16 13 12 11 13
5 1 4 5 7 8 6 2 5 4 2 3 2 1 1 8 9 7 8 7 7 5 6 8 11 10 10 9 12 14 12 9 13 20 15 17 17 15 15 16 16 15 13 17
3 4 7 6 4 3 6 5 5 5 3 4 4 2 5 6 7 9 7 6 9 7 6 7 8 8 9 11 13 13 15 15 12 16 18 20 17 18 14 15 14 14 13 13
4 4 2 1 4 4 4 4 4 5 1 3 4 1 4 11 9 8 8 9 7 7 6 9 8 8 10 12 13 14 16 14 15 16 15 17 17 19 16 14 13 12 12 11
3 4 3 7 7 8 7 4 4 6 3 2 4 3 5 10 8 5 10 8 7 6 6 7 7 7 6 10 11 13 13 15 14 17 17 16 18 17 17 14 13 12 11 10
6 2 5 5 4 3 8 10 5 7 5 0 1 8 5 6 6 8 8 7 6 6 6 4 5 6 7 8 11 11 11 13 15 17 18 17 15 13 14 14 16 12 9 11
4 2 4 8 17 18 15 13 12 9 5 5 3 5 8 8 8 8 9 6 6 6 4 4 3 5 6 8 9 8 10 14 15 15 18 16 14 12 13 13 14 14 13 10
3 1 2 8 16 19 17 15 12 13 9 7 6 3 5 5 9 9 9 6 6 6 5 4 4 4 6 6 8 9 10 12 14 17 16 16 14 14 14 12 13 16 15 13
3 3 2 4 3 7 10 9 11 10 9 2 5 2 5 6 8 6 6 5 6 5 4 4 4 3 4 6 8 10 12 10 13 16 16 16 15 15 13 13 13 14 14 16
3 2 2 3 4 5 4 5 13 13 6 7 8 6 7 7 5 6 4 6 5 5 4 5 4 3 3 5 9 10 9 10 11 12 13 14 13 13 13 14 13 13 14 15
13 2 4 4 4 2 10 2 4 2 5 4 10 9 10 9 6 3 4 5 5 7 5 5 4 2 3 6 8 9 8 10 10 12 14 13 13 14 18 17 17 15 12 11
4 5 5 2 5 3 4 9 7 4 3 5 6 8 10 6 2 3 5 7 7 6 7 6 4 2 4 6 7 6 7 8 10 12 11 10 11 13 15 12 14 12 12 11
5 4 6 3 4 3 6 9 3 5 4 0 4 4 5 3 4 5 10 8 8 5 5 3 3 1 2 5 6 3 5 7 8 11 12 11 12 13 13 11 10 7 7 7
4 3 3 3 4 2 4 5 5 4 1 4 4 4 6 6 6 5 7 9 7 4 5 2 1 1 0 3 3 4 5 6 7 9 10 10 12 12 7 8 6 8 7 5
4 0 3 3 4 3 4 6 3 5 4 1 5 5 6 6 5 6 5 8 6 4 6 2 2 1 0 1 1 2 4 6 7 7 7 9 10 10 10 12 7 4 5 6
7 5 3 4 4 4 5 2 5 5 5 5 6 7 5 6 5 6 7 6 5 4 4 3 2 1 2 2 1 1 4 6 6 8 9 11 11 10 7 5 7 7 5 4
3 4 4 3 2 4 0 4 5 6 8 8 12 10 8 8 5 7 6 7 6 3 6 2 2 0 4 4 2 1 2 5 7 8 9 13 15 17 15 8 4 2 5 6
4 3 2 4 5 4 4 4 9 7 6 9 8 6 8 9 7 9 9 9 8 5 5 3 3 3 6 5 2 1 2 6 8 11 12 15 20 20 16 13 11 7 2 1
Wind_Direction
325 80 238 257 217 162 150 115 208 76 100 68 94 116 120 149 179 142 127 151 162 183 184 223 218 262 240 156 118 49 40 41 20 5 1 358 353 352 353 359 343 339 336 321
7 242 241 259 93 113 116 97 93 60 87 98 116 118 137 172 159 157 153 160 163 150 240 279 285 200 99 137 59 64 73 34 15 7 3 356 350 350 2 346 343 328 330 327
206 245 232 102 96 107 125 131 52 129 90 124 125 88 99 74 108 141 158 162 136 98 76 105 42 50 111 75 102 85 46 25 16 1 0 356 347 348 356 2 1 4 11 4
103 36 78 61 39 80 41 326 37 127 166 185 211 120 95 131 41 117 88 94 120 122 150 261 335 24 54 84 64 54 38 18 18 5 0 13 13 2 356 351 351 356 4 344
315 46 54 65 66 93 162 346 32 57 71 116 38 90 96 198 92 116 123 164 181 153 185 268 342 46 58 109 66 47 39 33 27 19 11 9 9 4 355 348 341 338 343 345
80 227 85 180 89 47 114 39 35 46 85 55 321 115 312 243 155 156 178 209 166 202 210 226 81 88 72 65 56 34 28 22 25 16 4 10 14 4 356 354 353 351 347 341
342 334 326 57 24 22 56 50 3 4 29 81 297 54 215 226 188 170 174 183 173 161 73 71 76 68 62 48 36 26 19 18 10 7 8 7 356 358 359 356 353 348 351 349
58 2 14 1 28 119 77 125 140 265 189 175 16 82 211 158 107 139 143 127 137 64 95 97 85 87 67 50 38 29 11 12 24 18 11 14 21 9 5 0 353 350 357 10
58 342 359 18 30 66 336 27 175 128 65 85 119 89 121 116 130 122 119 126 96 109 100 81 87 85 66 46 30 30 29 37 22 13 7 10 15 12 9 6 8 14 17 28
348 336 14 350 48 24 100 238 28 10 86 96 68 292 188 156 171 140 146 135 142 116 107 93 90 65 57 55 32 36 40 31 26 21 21 19 18 12 16 20 26 25 35 32
41 82 315 42 13 99 20 26 57 108 79 141 150 259 229 178 161 158 163 128 141 133 120 110 82 61 51 43 44 38 36 24 18 17 26 24 20 20 21 24 28 31 28 29
14 126 77 186 303 112 94 105 104 114 41 63 112 6 139 134 155 149 144 124 128 132 126 116 82 67 50 45 37 46 32 38 28 22 21 22 21 24 26 29 26 29 31 32
333 9 40 344 355 0 72 23 108 99 91 353 113 176 122 130 161 165 131 132 133 120 121 99 78 60 46 43 33 33 30 30 25 23 20 17 26 27 28 30 31 38 47 49
91 77 150 173 227 140 63 47 44 101 77 45 78 130 137 177 145 117 119 122 121 120 140 132 77 60 52 48 31 30 31 28 19 21 20 19 13 16 23 31 32 35 49 53
91 62 46 59 82 72 63 73 64 76 156 97 161 132 195 185 144 145 131 134 133 136 122 116 118 50 45 43 26 25 26 24 20 18 12 14 14 28 27 27 31 43 49 51
30 317 36 64 78 69 65 62 73 77 71 84 116 76 105 90 90 116 129 140 114 116 128 112 138 44 41 47 28 15 8 19 21 25 28 31 31 26 25 28 41 59 50 49
86 109 71 128 106 56 44 66 77 64 40 84 63 122 118 79 97 116 135 125 118 130 149 138 136 78 77 38 10 12 16 25 27 32 30 39 38 38 40 40 34 32 32 35
10 75 87 119 48 59 300 51 97 84 49 54 91 102 118 119 115 121 144 134 136 136 143 141 131 102 56 31 12 15 21 25 28 28 25 23 20 14 7 9 12 26 36 44
359 97 59 88 57 357 267 331 305 173 20 38 113 127 132 126 96 30 147 151 147 156 167 138 124 113 63 11 6 12 40 26 23 18 15 18 22 29 23 31 40 48 54 56
301 65 98 124 113 165 267 308 324 147 55 340 106 147 168 178 80 234 189 153 138 151 148 138 137 123 23 10 9 45 38 22 17 15 18 26 21 7 8 18 35 57 68 66
343 344 67 12 95 60 309 311 6 79 231 225 124 151 170 160 198 182 180 152 160 162 164 175 197 17 8 11 19 51 28 33 18 0 12 16 16 16 19 33 32 47 73 81
26 14 26 57 75 35 311 352 81 195 52 140 123 148 118 132 149 170 158 162 165 148 172 180 164 9 40 7 57 65 42 33 15 7 359 6 9 359 7 15 35 58 70 92
26 354 126 127 188 209 11 128 124 150 131 114 121 161 148 152 169 157 145 166 172 161 186 212 248 267 250 47 66 58 25 20 7 14 4 358 1 14 8 21 38 54 71 89
351 30 76 68 28 121 136 137 142 133 126 126 135 149 147 152 168 144 159 178 185 202 217 253 307 73 123 119 135 115 20 12 357 1 356 348 341 332 326 339 24 35 45 32
268 17 26 38 56 78 70 176 151 127 136 121 152 153 154 141 161 169 181 191 199 215 191 219 167 158 175 151 140 67 16 2 353 347 348 343 335 340 338 265 265 14 22 35
342 344 106 218 241 163 237 196 152 140 162 153 141 146 168 164 171 169 183 193 199 208 198 208 224 291 200 200 187 156 316 332 342 339 341 336 328 333 340 325 242 233 224 357